[[[{"header":{"parameterUnit":"kt","parameterCategory":2,"dx":1,"dy":1,"la1":30.253999710083008,"la2":30.299108505249023,"lo1":-89.0895004272461,"lo2":-89.04439544677734,"nx":28,"ny":28,"refTime":"2022-09-21T09:00:00:Z","depth":0,"parameterNumber":1,"parameterNumberName":"U-component_of_WINDS"},"data":[0.393,0.406,0.4117,0.4287,0.4366,0.449,0.4551,0.4634,0.4713,0.486,0.4953,0.5016,0.511,0.5228,0.5326,0.535,0.5386,0.5393,0.5419,0.5352,0.5345,0.5339,0.5314,0.5401,0.5401,0.548,0.5481,0.5481,0.3873,0.3954,0.4063,0.4205,0.4296,0.4325,0.4437,0.4509,0.4616,0.4714,0.481,0.4941,0.5049,0.5143,0.5253,0.5307,0.5322,0.5332,0.5327,0.534,0.5271,0.5244,0.5318,0.5318,0.5317,0.5317,0.5317,0.5317,0.3784,0.386,0.398,0.4098,0.4184,0.4277,0.4356,0.4436,0.4537,0.4667,0.4709,0.4829,0.4932,0.509,0.5154,0.5244,0.5241,0.5266,0.5271,0.5275,0.5273,0.5146,0.5265,0.5265,0.5265,0.5265,0.5265,0,0.3735,0.3778,0.3886,0.4011,0.4099,0.4199,0.4299,0.4349,0.4451,0.4529,0.4646,0.4721,0.4866,0.4977,0.5092,0.5154,0.5183,0.5193,0.5209,0.5189,0.5157,0.5171,0.5053,0.5188,0.5187,0.5187,0.5187,0.5186,0.3645,0.3729,0.3882,0.3949,0.4019,0.4126,0.42,0.4285,0.4358,0.4489,0.4547,0.4663,0.4759,0.493,0.5013,0.5119,0.5133,0.5179,0.5149,0.5127,0.5129,0.5123,0.5129,0.5181,0.5182,0.5183,0.5183,0,0.3588,0.3682,0.3828,0.397,0.4008,0.4088,0.4206,0.4282,0.435,0.4462,0.4493,0.4597,0.4707,0.4785,0.4924,0.496,0.508,0.5093,0.5045,0.505,0.5096,0.5089,0.5239,0.5261,0.5176,0.5177,0.5177,0,0.3546,0.3651,0.3783,0.3863,0.3981,0.4065,0.4177,0.4247,0.4342,0.4432,0.4483,0.4564,0.4652,0.4743,0.4797,0.4909,0.4936,0.4969,0.4981,0.4963,0.4958,0.4996,0.499,0.5011,0.501,0.5009,0.5008,0,0.3445,0.364,0.3771,0.3829,0.399,0.4047,0.4115,0.4223,0.4293,0.4396,0.4441,0.4553,0.4613,0.4695,0.4764,0.474,0.4905,0.4886,0.4937,0.4935,0.4966,0.4963,0.508,0.5007,0.5007,0.5007,0.5007,0,0.3424,0.3536,0.3713,0.3847,0.3894,0.3978,0.4099,0.419,0.4298,0.434,0.4421,0.4463,0.4572,0.4548,0.4696,0.4646,0.47,0.4743,0.4748,0.4759,0.4728,0.4779,0.4887,0.4899,0.4772,0.477,0.4768,0,0.328,0.3485,0.3561,0.3726,0.3831,0.3885,0.3979,0.4076,0.414,0.4233,0.4302,0.4406,0.4406,0.4449,0.4513,0.4585,0.465,0.4579,0.47,0.4704,0.4668,0.477,0.4765,0.4856,0.4745,0.4747,0.4749,0,0.318,0.338,0.3405,0.3474,0.3621,0.3709,0.3818,0.3944,0.4002,0.4106,0.4195,0.4346,0.435,0.442,0.4466,0.4528,0.4608,0.4523,0.4526,0.4532,0.4741,0.4735,0.4751,0.4623,0.4626,0.4629,0.473,0,0.312,0.3236,0.3308,0.3461,0.3543,0.3652,0.3744,0.3816,0.3854,0.392,0.4054,0.4152,0.4274,0.4314,0.435,0.447,0.4461,0.4464,0.4442,0.451,0.4545,0.456,0.4383,0.4383,0.4383,0.4383,0,0,0.2956,0.3125,0.3206,0.3319,0.3392,0.3447,0.3554,0.3631,0.3783,0.383,0.3821,0.4046,0.4125,0.4277,0.4305,0.4355,0.4382,0.4356,0.4478,0.4488,0.4498,0.4534,0.4548,0.4383,0.4383,0.4383,0.4383,0,0.2954,0.3046,0.3156,0.3241,0.337,0.3437,0.3463,0.3598,0.3645,0.378,0.3817,0.3907,0.4086,0.4164,0.4226,0.4342,0.4361,0.4372,0.4404,0.4475,0.4485,0.4494,0.4531,0.4544,0.4383,0.4383,0.4383,0,0.2868,0.2973,0.3037,0.3212,0.3296,0.3403,0.3405,0.3518,0.3596,0.3643,0.3775,0.3841,0.3952,0.4087,0.4151,0.4142,0.4335,0.4291,0.4294,0.4301,0.4373,0.4385,0.4396,0.4249,0.4249,0.4248,0,0,0.2852,0.2963,0.3099,0.3219,0.3269,0.337,0.3436,0.3482,0.3587,0.3628,0.3713,0.3809,0.3913,0.3979,0.4081,0.4218,0.4244,0.4271,0.4278,0.4283,0.4292,0.4365,0.4377,0.4245,0.4245,0.4245,0,0,0.2843,0.3009,0.3031,0.3183,0.3284,0.3422,0.3488,0.3517,0.362,0.3617,0.3693,0.3722,0.385,0.3912,0.3862,0.4074,0.4052,0.4065,0.4029,0.4038,0.4044,0.4025,0.3873,0,0,0,0,0,0.2888,0.2989,0.3008,0.3047,0.3267,0.3412,0.344,0.351,0.3493,0.3544,0.3619,0.3638,0.39,0.3858,0.3892,0.3946,0.4206,0.4213,0.4219,0.4204,0.4213,0.422,0,0,0,0,0,0,0.2904,0.2952,0.3005,0.3147,0.3197,0.341,0.3396,0.3418,0.3489,0.3491,0.3623,0.3642,0.37,0.3845,0.3875,0.3925,0.3863,0.4208,0.4214,0.422,0.4207,0.4214,0.422,0,0,0,0,0,0.2917,0.2956,0.3292,0.3146,0.3189,0.3306,0.3393,0.3411,0.3467,0.3584,0.3604,0.3513,0.3699,0.3729,0.3863,0.3909,0.3842,0.3853,0.4212,0.4217,0.4221,0.4211,0,0,0,0,0,0,0.2927,0.2971,0.3302,0.3317,0.3114,0.3296,0.3327,0.3404,0.3556,0.3577,0.3477,0.3477,0.3701,0.3723,0.3746,0.39,0.3826,0.3837,0.3844,0.4216,0.4219,0.4223,0,0,0,0,0,0,0.2951,0.2984,0.331,0.3266,0.3277,0.3285,0.3314,0.3436,0.3557,0.3441,0.3445,0.3475,0.3664,0.372,0.3737,0.3926,0.3813,0.3824,0.3831,0.3836,0.4219,0.4222,0,0,0,0,0,0,0.2966,0.2995,0.3262,0.3271,0.3281,0.346,0.3395,0.3614,0.3526,0.3433,0.3519,0.3516,0.366,0.3679,0.3731,0.3913,0.3923,0.3814,0.3821,0.3826,0.3829,0,0,0,0,0,0,0,0.2978,0.2772,0.321,0.3275,0.3283,0.3461,0.3465,0.3469,0.3525,0.3522,0.352,0.3517,0.3753,0.3764,0.3776,0.3901,0,0,0.3812,0.3818,0,0,0,0,0,0,0,0,0.2761,0.2769,0.3211,0.3214,0.3217,0.3462,0.3465,0.3469,0.3525,0.3522,0.352,0.3518,0.3756,0.3765,0.3775,0,0,0,0,0,0,0,0,0,0,0,0,0,0,0,0.3211,0.3214,0,0.3462,0.3465,0.3468,0.3524,0.3522,0.3521,0.3519,0.3758,0.3766,0.3774,0,0,0,0,0,0,0,0,0,0,0,0,0,0,0,0,0,0,0,0,0,0,0,0,0,0,0,0,0,0,0,0,0,0,0,0,0,0,0,0,0,0,0,0,0,0,0,0,0,0,0,0,0,0,0,0,0,0,0,0,0,0,0,0,0,0,0,0,0]}],[{"header":{"parameterUnit":"kt","parameterCategory":2,"dx":1,"dy":1,"la1":30.253999710083008,"la2":30.299108505249023,"lo1":-89.0895004272461,"lo2":-89.04439544677734,"nx":28,"ny":28,"refTime":"2022-09-21T09:00:00:Z","depth":0,"parameterNumber":2,"parameterNumberName":"V-component_of_WINDS"},"data":[6.1026,6.0987,6.092,6.0844,6.0772,6.0706,6.0661,6.0595,6.0526,6.0439,6.0376,6.0303,6.0204,6.0111,6.0038,6.0006,5.9976,6.0012,5.9967,5.9876,5.9859,5.9842,5.9844,6.0009,6.0009,6.0067,6.0068,6.0068,6.0961,6.0889,6.0832,6.0728,6.0676,6.0602,6.0514,6.0474,6.0417,6.0332,6.0268,6.0185,6.011,5.9997,5.9912,5.9889,5.9846,5.987,5.9866,5.985,5.9753,5.9757,5.9906,5.9906,5.9906,5.9906,5.9906,5.9906,6.0824,6.0805,6.0703,6.0638,6.0569,6.05,6.0468,6.0379,6.032,6.0226,6.0157,6.0091,5.9991,5.9855,5.9793,5.9737,5.9697,5.9701,5.9699,5.97,5.9708,5.9621,5.9721,5.972,5.972,5.9719,5.9719,0,6.07,6.0645,6.0585,6.0504,6.0453,6.0384,6.0309,6.0288,6.0145,6.0103,6.0033,5.9981,5.9879,5.9803,5.971,5.9642,5.9554,5.9541,5.9541,5.9568,5.9604,5.9576,5.9413,5.9537,5.9535,5.9533,5.9532,5.9532,6.0549,6.0537,6.0399,6.0365,6.0307,6.0256,6.021,6.0086,6.0043,5.9931,5.9919,5.9844,5.9776,5.9677,5.9569,5.9491,5.9446,5.95,5.9433,5.9462,5.9436,5.9434,5.9429,5.9512,5.9515,5.9517,5.9518,0,6.0469,6.0358,6.0317,6.018,6.0145,6.0138,6.0019,5.9995,5.9911,5.9864,5.9846,5.9712,5.9646,5.9529,5.9432,5.9371,5.935,5.9313,5.9381,5.9364,5.9394,5.939,5.9527,5.9535,5.9373,5.9374,5.9376,0,6.0291,6.0281,6.0114,6.0097,6.008,5.9954,5.994,5.9866,5.9778,5.9741,5.9626,5.9593,5.9449,5.9399,5.9311,5.9274,5.9258,5.9206,5.9181,5.9211,5.9217,5.9179,5.9168,5.9137,5.9137,5.9136,5.9136,0,6.0169,6.0072,6.0043,6.0002,5.9854,5.9844,5.9781,5.9682,5.9639,5.9565,5.9534,5.9459,5.9415,5.9356,5.9243,5.9202,5.9198,5.9117,5.9144,5.9146,5.9143,5.9143,5.9301,5.9135,5.9135,5.9134,5.9134,0,6.0005,5.9935,5.9915,5.9785,5.9764,5.9748,5.9661,5.9621,5.9525,5.9467,5.9408,5.9315,5.9279,5.9206,5.9152,5.9128,5.9091,5.9041,5.9041,5.9022,5.8941,5.9035,5.9206,5.9214,5.9015,5.9014,5.9013,0,5.9892,5.9842,5.9731,5.9715,5.9674,5.9542,5.9522,5.9441,5.9363,5.9315,5.9229,5.9177,5.9099,5.9065,5.9056,5.8962,5.8994,5.8956,5.888,5.8879,5.89,5.9058,5.9108,5.9183,5.9,5.9001,5.9002,0,5.9788,5.9609,5.9614,5.9558,5.9433,5.94,5.9378,5.9298,5.9271,5.9197,5.9169,5.9099,5.9033,5.8981,5.8897,5.8893,5.8969,5.8823,5.8818,5.8846,5.8986,5.9032,5.9046,5.8913,5.8914,5.8916,5.8991,0,5.9548,5.9511,5.9523,5.941,5.9368,5.9354,5.9227,5.9198,5.912,5.9037,5.9001,5.8906,5.8825,5.8813,5.8738,5.8768,5.8742,5.8675,5.8588,5.8697,5.8717,5.8727,5.8567,5.8564,5.8561,5.8559,0,0,5.9462,5.9404,5.9284,5.9258,5.9212,5.9075,5.9069,5.901,5.8895,5.8865,5.8818,5.8702,5.8628,5.8595,5.862,5.8591,5.8581,5.855,5.8648,5.8659,5.8668,5.8693,5.8705,5.8554,5.8553,5.8552,5.8552,0,5.9345,5.9276,5.9274,5.9206,5.9102,5.9015,5.9016,5.8888,5.8834,5.8801,5.8684,5.8648,5.8564,5.8495,5.8449,5.8553,5.8464,5.854,5.8633,5.8626,5.864,5.8652,5.868,5.8693,5.8545,5.8545,5.8546,0,5.9213,5.9119,5.9106,5.9002,5.8933,5.8897,5.8775,5.8745,5.8716,5.8566,5.8533,5.8464,5.8365,5.8356,5.8347,5.8302,5.8364,5.8326,5.834,5.8334,5.832,5.8338,5.8353,5.8148,5.8148,5.8147,0,0,5.9129,5.9095,5.8954,5.8967,5.8932,5.8802,5.8772,5.8689,5.8604,5.857,5.8477,5.8398,5.8345,5.8314,5.8259,5.8269,5.8233,5.8282,5.8301,5.8317,5.832,5.8311,5.8328,5.8143,5.8143,5.8143,0,0,5.9088,5.8924,5.886,5.8861,5.8784,5.8644,5.8656,5.8574,5.8512,5.8499,5.8359,5.8331,5.8321,5.8258,5.8228,5.8224,5.8143,5.8147,5.8265,5.8286,5.8305,5.8316,5.8087,0,0,0,0,0,5.8902,5.8944,5.8888,5.8869,5.8737,5.8677,5.8658,5.8543,5.8485,5.8497,5.8406,5.8316,5.8211,5.8181,5.8164,5.8197,5.81,5.8108,5.8115,5.8268,5.8292,5.8313,0,0,0,0,0,0,5.8893,5.8871,5.8886,5.8752,5.872,5.8674,5.855,5.852,5.8481,5.8464,5.8337,5.8312,5.8213,5.8182,5.8169,5.8202,5.8092,5.8103,5.811,5.8116,5.8276,5.8296,5.8313,0,0,0,0,0,5.8886,5.8868,5.8686,5.875,5.8723,5.858,5.8547,5.8521,5.8489,5.8349,5.8321,5.8405,5.8217,5.8198,5.8173,5.821,5.81,5.8095,5.8108,5.8113,5.8117,5.8286,0,0,0,0,0,0,5.8881,5.8843,5.8678,5.8665,5.8725,5.858,5.8553,5.8523,5.8373,5.8347,5.841,5.8399,5.8221,5.8205,5.8191,5.822,5.8107,5.8102,5.8099,5.8111,5.8115,5.8119,0,0,0,0,0,0,5.8852,5.8833,5.8671,5.8646,5.863,5.858,5.8557,5.8521,5.8374,5.8443,5.8428,5.8407,5.8242,5.821,5.8199,5.8147,5.8112,5.8108,5.8105,5.8103,5.8115,5.8118,0,0,0,0,0,0,5.8842,5.8826,5.8649,5.8636,5.8621,5.8471,5.8546,5.8417,5.8353,5.8452,5.8344,5.834,5.825,5.8235,5.8205,5.8159,5.815,5.8112,5.8109,5.8107,5.8105,0,0,0,0,0,0,0,5.8834,5.8969,5.8753,5.8628,5.8614,5.8549,5.8545,5.8542,5.8352,5.8348,5.8345,5.8341,5.8137,5.8133,5.8128,5.8169,0,0,5.8112,5.811,0,0,0,0,0,0,0,0,5.8973,5.897,5.8752,5.875,5.8747,5.8548,5.8545,5.8543,5.8351,5.8348,5.8346,5.8343,5.8136,5.8132,5.8128,0,0,0,0,0,0,0,0,0,0,0,0,0,0,0,5.8752,5.875,0,5.8548,5.8546,5.8543,5.8351,5.8349,5.8346,5.8344,5.8135,5.8132,5.8129,0,0,0,0,0,0,0,0,0,0,0,0,0,0,0,0,0,0,0,0,0,0,0,0,0,0,0,0,0,0,0,0,0,0,0,0,0,0,0,0,0,0,0,0,0,0,0,0,0,0,0,0,0,0,0,0,0,0,0,0,0,0,0,0,0,0,0,0,0]}]]]